Overview Statistics Trail Chart Weather Telemetry Raw packets
 

This is the latest recevied weather packets stored in our database for station/object 4S6DRJ-13. If no packets are shown the sender has not sent any weather packets the latest 10 day(s).

<< 370 371 372 373 374 375 376 >>
Time Temp. Humidity Pressure Rain* Wind** Luminosity Snow
1787907760 30° C 77% 1008.2 hPa 0 mm 1.34 m/s, 202° 253 W/m² -
1787907699 30° C 78% 1008.1 hPa 0 mm 1.79 m/s, 206° 258 W/m² -
1787907638 30° C 78% 1008.3 hPa 0 mm 1.34 m/s, 301° 257 W/m² -
1787907577 30° C 78% 1008.5 hPa 0 mm 1.34 m/s, 252° 281 W/m² -
1787907516 30° C 78% 1008.5 hPa 0 mm 2.68 m/s, 201° 294 W/m² -
1787907455 30° C 77% 1008.3 hPa 0 mm 2.24 m/s, 240° 415 W/m² -
1787907394 30° C 78% 1008.3 hPa 0 mm 1.34 m/s, 296° 409 W/m² -
1787907333 30° C 78% 1008.3 hPa 0 mm 1.79 m/s, 43° 384 W/m² -
1787907272 30° C 77% 1008.3 hPa 0 mm 3.13 m/s, 274° 372 W/m² -
1787907211 30° C 77% 1008.3 hPa 0 mm 1.79 m/s, 244° 353 W/m² -
1787907150 30° C 77% 1008.5 hPa 0 mm 1.79 m/s, 245° 358 W/m² -
1787907089 30° C 77% 1008.3 hPa 0 mm 1.34 m/s, 250° 366 W/m² -
1787907028 30° C 76% 1008.4 hPa 0 mm 1.79 m/s, 277° 359 W/m² -
1787906967 30° C 76% 1008.5 hPa 0 mm 2.68 m/s, 202° 229 W/m² -
1787906906 30° C 76% 1008.4 hPa 0 mm 0.89 m/s, 130° 243 W/m² -
1787906845 30.56° C 75% 1008.5 hPa 0 mm 2.68 m/s, 117° 321 W/m² -
1787906784 30.56° C 76% 1008.3 hPa 0 mm 2.68 m/s, 125° 334 W/m² -
1787906723 30.56° C 76% 1008.3 hPa 0 mm 4.02 m/s, 205° 318 W/m² -
1787906663 30.56° C 76% 1008.4 hPa 0 mm 1.79 m/s, 217° 335 W/m² -
1787906601 30.56° C 76% 1008.3 hPa 0 mm 1.79 m/s, 232° 355 W/m² -
1787906541 30.56° C 75% 1008.5 hPa 0 mm 2.68 m/s, 237° 770 W/m² -
1787906479 30.56° C 75% 1008.4 hPa 0 mm 1.34 m/s, 202° 435 W/m² -
1787906418 30.56° C 76% 1008.4 hPa 0 mm 2.24 m/s, 263° 451 W/m² -
1787906357 30.56° C 77% 1008.5 hPa 0 mm 0.45 m/s, 317° 315 W/m² -
1787906297 30.56° C 76% 1008.6 hPa 0 mm 2.68 m/s, 141° 331 W/m² -

* Rain latest hour (hover to see other rain measurements)
** Current wind speed in m/s (hover to see current wind gust speed)